TimeEDT,TemperatureF,Dew PointF,Humidity,Sea Level PressureIn,VisibilityMPH,Wind Direction,Wind SpeedMPH,Gust SpeedMPH,PrecipitationIn,Events,Conditions,WindDirDegrees,DateUTC
12:43 AM,62.6,48.2,59,29.99,1.8,SSW,4.6,-,0.08,Rain,Heavy Rain,210,2013-07-26 04:43:00
12:50 AM,59.0,51.8,77,29.99,3.0,SW,5.8,-,0.10,Rain,Light Rain,220,2013-07-26 04:50:00
12:53 AM,60.1,50.0,69,29.99,4.0,South,4.6,-,0.10,Rain,Light Rain,190,2013-07-26 04:53:00
1:11 AM,57.2,51.8,82,29.99,2.0,Variable,5.8,-,0.09,Rain,Rain,0,2013-07-26 05:11:00
1:19 AM,57.2,51.8,82,29.99,10.0,Calm,Calm,-,0.09,Rain,Light Rain,0,2013-07-26 05:19:00
1:53 AM,59.0,50.0,72,29.98,10.0,Variable,3.5,-,0.09,,Mostly Cloudy,0,2013-07-26 05:53:00
2:53 AM,59.0,51.1,75,29.97,10.0,Variable,3.5,-,N/A,,Mostly Cloudy,0,2013-07-26 06:53:00
3:53 AM,59.0,52.0,78,29.96,10.0,Calm,Calm,-,0.00,,Overcast,0,2013-07-26 07:53:00
4:53 AM,59.0,52.0,78,29.95,10.0,South,5.8,-,N/A,,Overcast,180,2013-07-26 08:53:00
5:53 AM,59.0,51.1,75,29.95,10.0,Calm,Calm,-,N/A,,Clear,0,2013-07-26 09:53:00
6:53 AM,59.0,52.0,78,29.95,10.0,SSE,4.6,-,N/A,,Mostly Cloudy,160,2013-07-26 10:53:00
7:53 AM,61.0,53.1,75,29.95,10.0,South,3.5,-,N/A,,Mostly Cloudy,170,2013-07-26 11:53:00
8:53 AM,64.9,55.9,73,29.95,10.0,South,3.5,-,N/A,,Mostly Cloudy,180,2013-07-26 12:53:00
9:53 AM,70.0,59.0,68,29.95,10.0,Variable,5.8,-,N/A,,Mostly Cloudy,0,2013-07-26 13:53:00
10:53 AM,73.9,61.0,64,29.92,10.0,South,8.1,-,N/A,,Scattered Clouds,190,2013-07-26 14:53:00
11:53 AM,75.0,62.1,64,29.92,10.0,SW,6.9,17.3,N/A,,Mostly Cloudy,220,2013-07-26 15:53:00
12:53 PM,75.0,61.0,62,29.91,10.0,SSW,8.1,19.6,N/A,,Mostly Cloudy,210,2013-07-26 16:53:00
1:53 PM,78.1,61.0,56,29.88,10.0,SSW,11.5,21.9,N/A,,Overcast,210,2013-07-26 17:53:00
2:53 PM,73.0,61.0,66,29.88,10.0,South,5.8,18.4,0.00,,Mostly Cloudy,190,2013-07-26 18:53:00
3:53 PM,73.0,59.0,61,29.87,10.0,SSW,8.1,21.9,N/A,,Overcast,210,2013-07-26 19:53:00
4:53 PM,71.1,60.1,68,29.88,10.0,SSW,10.4,19.6,0.00,,Overcast,210,2013-07-26 20:53:00
5:53 PM,66.9,61.0,81,29.88,7.0,Variable,3.5,-,0.02,Rain,Light Rain,0,2013-07-26 21:53:00
6:20 PM,66.2,60.8,83,29.89,5.0,Variable,5.8,-,0.02,Rain,Light Rain,0,2013-07-26 22:20:00
6:53 PM,64.9,61.0,87,29.88,7.0,Calm,Calm,-,0.05,,Overcast,0,2013-07-26 22:53:00
7:09 PM,64.4,60.8,88,29.87,10.0,Calm,Calm,-,0.00,,Overcast,0,2013-07-26 23:09:00
7:37 PM,64.4,60.8,88,29.88,2.0,WNW,6.9,17.3,0.02,Rain,Rain,290,2013-07-26 23:37:00
7:53 PM,64.0,60.1,87,29.88,2.0,Variable,6.9,-,0.08,Rain,Light Rain,0,2013-07-26 23:53:00
8:11 PM,62.6,60.8,94,29.86,3.0,South,4.6,-,0.10,Rain,Light Rain,170,2013-07-27 00:11:00
8:53 PM,63.0,60.1,90,29.85,10.0,Calm,Calm,-,0.10,,Overcast,0,2013-07-27 00:53:00
9:37 PM,64.4,60.8,88,29.87,10.0,Calm,Calm,-,0.00,,Overcast,0,2013-07-27 01:37:00
9:53 PM,64.0,61.0,90,29.87,10.0,Calm,Calm,-,0.00,,Overcast,0,2013-07-27 01:53:00
10:53 PM,63.0,61.0,93,29.84,10.0,Calm,Calm,-,N/A,,Mostly Cloudy,0,2013-07-27 02:53:00
11:53 PM,63.0,61.0,93,29.83,10.0,Calm,Calm,-,N/A,,Overcast,0,2013-07-27 03:53:00